Date String (YYYY-MM-DD hh:mm:ss) UTC,Instrument flags,Ambient pressure (hPa),Sample flow (lpm),Bypass flow (lpm),Sample temperature (°C),Ambient temperature (°C),ASC tube jacket temperature (°C),LED temperature (°C),Box temperature (°C),Sample RH (%),Span deviation,Mass concentration (μg/m³),Mass concentration (μg/m³),Mass concentration (μg/m³)
DateTimeUTC,F1_M11,P_M11,Q1_M11,Q2_M11,T1_M11,T2_M11,T3_M11,T4_M11,T5_M11,U1_M11,ZSPAN_M11,X2_M11,X0_M11,X1_M11
2022-05-07 07:00:00,,0820.8,5.01,0.00,29.7,27.5,00.0,38.7,31.3,11.8,0000.0,0003.94,0009.81,0002.49
2022-05-07 07:01:00,,0820.8,4.99,0.00,29.7,27.8,00.0,38.7,31.3,11.8,0000.0,0003.96,0009.95,0002.50
2022-05-07 07:02:00,,0820.8,4.99,0.00,29.7,28.0,00.0,38.7,31.4,11.5,0000.0,0003.98,0009.75,0002.50
2022-05-07 07:03:00,,0820.8,5.00,0.00,29.7,28.2,00.0,38.7,31.4,11.5,0000.0,0004.00,0010.95,0002.49
2022-05-07 07:04:00,,0820.8,5.00,0.00,29.7,28.3,00.0,38.7,31.4,11.5,0000.0,0004.02,0011.42,0002.51
2022-05-07 07:05:00,,0820.8,5.00,0.00,29.7,28.4,00.0,38.7,31.4,11.8,0000.0,0003.95,0011.42,0002.53
2022-05-07 07:06:00,,0820.8,5.00,0.00,29.8,28.5,00.0,38.7,31.5,12.0,0000.0,0003.97,0011.93,0002.52
2022-05-07 07:07:00,,0820.7,5.00,0.00,29.8,28.6,00.0,38.7,31.5,11.6,0000.0,0003.98,0012.76,0002.50
2022-05-07 07:08:00,,0820.7,5.00,0.00,29.8,28.6,00.0,38.7,31.5,11.2,0000.0,0003.98,0013.02,0002.47
2022-05-07 07:09:00,,0820.7,5.01,0.00,29.8,28.7,00.0,38.7,31.6,10.9,0000.0,0003.98,0013.44,0002.45
2022-05-07 07:10:00,,0820.6,5.00,0.00,29.8,28.7,00.0,38.7,31.6,11.0,0000.0,0003.99,0013.46,0002.43
2022-05-07 07:11:00,,0820.6,5.00,0.00,29.8,28.7,00.0,38.7,31.6,10.8,0000.0,0003.97,0013.73,0002.41
2022-05-07 07:12:00,,0820.6,4.99,0.00,29.8,28.8,00.0,38.7,31.6,10.8,0000.0,0003.91,0014.05,0002.41
2022-05-07 07:13:00,,0820.5,4.99,0.00,29.9,28.7,00.0,38.7,31.6,11.0,0000.0,0003.89,0014.21,0002.42
2022-05-07 07:14:00,,0820.6,5.00,0.00,29.9,28.8,00.0,38.7,31.6,11.0,0000.0,0003.90,0012.92,0002.43
2022-05-07 07:15:00,,0820.6,5.00,0.00,29.9,28.8,00.0,38.8,31.6,10.9,0000.0,0003.87,0012.99,0002.41
2022-05-07 07:16:00,,0820.6,5.01,0.00,29.9,28.8,00.0,38.8,31.6,10.9,0000.0,0003.87,0012.87,0002.41
2022-05-07 07:17:00,,0820.6,4.99,0.00,29.9,28.8,00.0,38.8,31.6,10.8,0000.0,0003.87,0013.31,0002.40
2022-05-07 07:18:00,,0820.6,5.01,0.00,29.9,28.8,00.0,38.8,31.7,10.9,0000.0,0003.85,0012.34,0002.41
2022-05-07 07:19:00,,0820.6,4.99,0.00,29.9,28.8,00.0,38.8,31.7,10.9,0000.0,0003.83,0012.24,0002.42
2022-05-07 07:20:00,,0820.6,5.00,0.00,29.9,28.8,00.0,38.8,31.7,10.9,0000.0,0003.88,0012.45,0002.45
2022-05-07 07:21:00,,0820.6,5.00,0.00,29.9,28.8,00.0,38.8,31.7,10.9,0000.0,0003.94,0013.44,0002.49
2022-05-07 07:22:00,,0820.6,5.01,0.00,30.0,28.9,00.0,38.8,31.7,10.8,0000.0,0003.96,0013.71,0002.52
2022-05-07 07:23:00,,0820.6,5.00,0.00,30.0,28.9,00.0,38.8,31.7,10.7,0000.0,0003.98,0013.80,0002.53
2022-05-07 07:24:00,,0820.6,5.00,0.00,30.0,28.9,00.0,38.9,31.7,10.5,0000.0,0003.99,0013.18,0002.51
2022-05-07 07:25:00,,0820.5,5.00,0.00,30.0,28.9,00.0,38.9,31.7,10.5,0000.0,0003.98,0013.23,0002.46
2022-05-07 07:26:00,,0820.6,5.01,0.00,30.0,28.9,00.0,38.9,31.7,10.6,0000.0,0004.00,0012.97,0002.45
2022-05-07 07:27:00,,0820.5,4.99,0.00,30.0,29.0,00.0,38.9,31.8,10.5,0000.0,0003.99,0012.89,0002.43
2022-05-07 07:28:00,,0820.5,5.00,0.00,30.0,29.0,00.0,38.9,31.8,10.6,0000.0,0004.02,0012.25,0002.42
2022-05-07 07:29:00,,0820.5,5.00,0.00,30.0,29.0,00.0,38.9,31.7,10.6,0000.0,0003.96,0012.43,0002.40
2022-05-07 07:30:00,,0820.4,5.00,0.00,30.0,29.0,00.0,38.9,31.8,10.6,0000.0,0003.99,0012.57,0002.38
2022-05-07 07:31:00,,0820.4,5.00,0.00,30.0,29.0,00.0,38.9,31.8,10.6,0000.0,0003.97,0012.00,0002.35
2022-05-07 07:32:00,,0820.4,5.00,0.00,30.0,29.0,00.0,38.9,31.8,10.5,0000.0,0003.89,0011.53,0002.31
2022-05-07 07:33:00,,0820.4,5.00,0.00,30.0,29.0,00.0,38.9,31.8,10.6,0000.0,0003.85,0011.23,0002.29
2022-05-07 07:34:00,,0820.4,5.00,0.00,30.0,29.0,00.0,38.9,31.8,10.6,0000.0,0003.81,0010.60,0002.25
2022-05-07 07:35:00,,0820.3,4.98,0.00,30.0,29.0,00.0,38.9,31.8,10.6,0000.0,0003.81,0010.43,0002.26
2022-05-07 07:36:00,,0820.3,4.99,0.00,30.0,29.0,00.0,38.9,31.8,10.6,0000.0,0003.81,0011.00,0002.29
2022-05-07 07:37:00,,0820.3,5.01,0.00,30.0,29.0,00.0,38.9,31.7,10.6,0000.0,0003.86,0011.45,0002.33
2022-05-07 07:38:00,,0820.3,5.01,0.00,30.0,29.0,00.0,39.0,31.8,10.6,0000.0,0003.87,0011.52,0002.35
2022-05-07 07:39:00,,0820.3,5.01,0.00,30.0,29.0,00.0,39.0,31.8,10.6,0000.0,0003.84,0011.67,0002.35
2022-05-07 07:40:00,,0820.3,5.00,0.00,30.0,29.0,00.0,39.0,31.8,11.1,0000.0,0003.82,0011.42,0002.33
2022-05-07 07:41:00,,0820.3,5.00,0.00,30.0,29.0,00.0,39.0,31.8,11.1,0000.0,0003.83,0011.16,0002.32
2022-05-07 07:42:00,,0820.2,4.99,0.00,30.0,29.0,00.0,39.0,31.7,10.9,0000.0,0003.80,0010.77,0002.33
2022-05-07 07:43:00,,0820.1,4.98,0.00,30.0,29.0,00.0,39.0,31.8,10.8,0000.0,0003.82,0010.46,0002.34
2022-05-07 07:44:00,,0820.1,4.99,0.00,30.0,28.9,00.0,39.0,31.7,10.7,0000.0,0003.87,0010.31,0002.34
2022-05-07 07:45:00,,0820.0,5.01,0.00,30.0,28.9,00.0,39.0,31.7,10.6,0000.0,0003.89,0010.36,0002.35
2022-05-07 07:46:00,,0820.0,5.00,0.00,30.0,28.9,00.0,39.0,31.7,10.6,0000.0,0003.90,0010.35,0002.34
2022-05-07 07:47:00,,0820.0,5.00,0.00,30.0,28.9,00.0,39.0,31.8,10.6,0000.0,0003.91,0010.19,0002.33
2022-05-07 07:48:00,,0820.1,4.99,0.00,30.0,28.9,00.0,39.0,31.7,10.6,0000.0,0003.85,0009.58,0002.30
2022-05-07 07:49:00,,0820.1,5.02,0.00,30.0,28.9,00.0,39.0,31.7,10.7,0000.0,0003.81,0009.28,0002.27
2022-05-07 07:50:00,,0820.1,4.99,0.00,30.0,28.9,00.0,39.0,31.7,10.9,0000.0,0003.78,0009.08,0002.25
2022-05-07 07:51:00,,0820.1,5.00,0.00,30.0,28.9,00.0,39.0,31.7,11.3,0000.0,0003.80,0009.09,0002.24
2022-05-07 07:52:00,,0820.1,5.00,0.00,30.0,28.9,00.0,39.0,31.7,11.1,0000.0,0003.82,0009.15,0002.25
2022-05-07 07:53:00,,0820.1,5.01,0.00,30.0,28.9,00.0,39.0,31.7,10.7,0000.0,0003.83,0009.16,0002.27
2022-05-07 07:54:00,,0820.0,5.00,0.00,30.0,28.9,00.0,39.0,31.7,10.5,0000.0,0003.80,0009.26,0002.26
2022-05-07 07:55:00,,0819.9,4.99,0.00,30.0,28.9,00.0,39.0,31.7,10.5,0000.0,0003.73,0009.15,0002.25
2022-05-07 07:56:00,,0819.9,5.02,0.00,30.0,28.9,00.0,39.0,31.8,10.5,0000.0,0003.68,0009.03,0002.23
2022-05-07 07:57:00,,0819.9,5.00,0.00,30.0,28.9,00.0,39.0,31.7,10.6,0000.0,0003.63,0008.74,0002.21
2022-05-07 07:58:00,,0819.9,5.00,0.00,30.0,28.9,00.0,39.0,31.7,11.3,0000.0,0003.59,0008.37,0002.20
2022-05-07 07:59:00,,0819.9,5.00,0.00,30.0,28.9,00.0,39.0,31.7,10.7,0000.0,0003.57,0008.53,0002.20
